START_TIME,STEP,MOV.,M34,t_acc.,L5,t_acc.,L18,t_acc.,L14,t_acc.
1979-07-18 23:08:00.590 ,0,0,0.,12.0,0.,12.0,0.,12.0,0.,12.0
1979-07-18 23:08:12.590 ,0,0,0.,12.0,0.,12.0,0.,12.0,0.,12.0
1979-07-18 23:08:24.590 ,0,0,0.,12.0,0.,12.0,0.,12.0,0.,12.0
1979-07-18 23:08:36.590 ,0,0,0.,12.0,0.,12.0,0.,12.0,0.,12.0
1979-07-18 23:08:48.590 ,3,1,0.,12.0,0.,12.0,0.,12.0,0.,12.0
1979-07-18 23:09:00.590 ,3,1,0.,12.0,0.,12.0,0.,12.0,0.,12.0
1979-07-18 23:09:12.590 ,3,0,0.,12.0,0.,12.0,0.,12.0,0.,12.0
1979-07-18 23:09:24.590 ,3,0,0.,12.0,0.,12.0,0.,12.0,0.,12.0
1979-07-18 23:09:36.590 ,2,1,0.,12.0,0.,12.0,0.,12.0,0.,12.0
1979-07-18 23:09:48.590 ,2,1,0.,12.0,0.,12.0,0.,12.0,0.,12.0
1979-07-18 23:10:00.590 ,2,0,0.,12.0,0.,12.0,0.,12.0,0.,12.0
1979-07-18 23:10:12.590 ,2,0,0.,12.0,0.,12.0,0.,12.0,0.,12.0
1979-07-18 23:10:24.590 ,1,1,0.,12.0,0.,12.0,0.,12.0,0.,12.0
1979-07-18 23:10:36.590 ,1,1,0.,12.0,0.,12.0,0.,12.0,0.,12.0
1979-07-18 23:10:48.590 ,1,0,0.,12.0,0.,12.0,0.,12.0,0.,12.0
1979-07-18 23:11:00.590 ,1,0,0.,12.0,0.,12.0,0.,12.0,0.,12.0
1979-07-18 23:11:12.590 ,0,1,0.,12.0,0.,12.0,0.,12.0,0.,12.0
1979-07-18 23:11:24.590 ,0,1,0.,12.0,0.,12.0,0.,12.0,0.,12.0
1979-07-18 23:11:36.590 ,0,0,0.,12.0,0.,12.0,0.,12.0,0.,12.0
1979-07-18 23:11:48.590 ,0,0,0.,12.0,0.,12.0,0.,12.0,0.,12.0
1979-07-18 23:12:00.590 ,0,1,0.,12.0,0.,12.0,0.,12.0,0.,12.0
1979-07-18 23:12:12.590 ,0,1,0.,12.0,0.,12.0,0.,12.0,0.,12.0
1979-07-18 23:12:24.590 ,0,0,0.,12.0,0.,12.0,0.,12.0,0.,12.0
1979-07-18 23:12:36.590 ,0,0,0.,12.0,0.,12.0,0.,12.0,0.,12.0
1979-07-18 23:12:49.190 ,1,1,0.,12.0,0.,12.0,0.,12.0,0.,12.0
1979-07-18 23:13:01.190 ,1,1,0.,12.0,0.,12.0,0.,12.0,0.,12.0
1979-07-18 23:13:12.590 ,1,0,0.,12.0,0.,12.0,0.,12.0,0.,12.0
1979-07-18 23:13:24.590 ,1,0,0.,12.0,0.,12.0,0.,12.0,0.,12.0
1979-07-18 23:19:12.590 ,0,0,0.,12.0,0.,12.0,0.,12.0,0.,12.0
1979-07-18 23:19:24.590 ,0,0,0.,12.0,0.,12.0,0.,12.0,0.,12.0
1979-07-18 23:19:36.590 ,0,0,0.,12.0,0.,12.0,0.,12.0,0.,12.0
1979-07-18 23:19:48.590 ,0,0,0.,12.0,0.,12.0,0.,12.0,0.,12.0
1979-07-18 23:20:00.590 ,5,1,0.,12.0,0.,12.0,0.,12.0,0.,12.0
1979-07-18 23:20:12.590 ,5,1,0.,12.0,0.,12.0,0.,12.0,0.,12.0
1979-07-18 23:20:24.590 ,5,0,0.,12.0,0.,12.0,0.,12.0,0.,12.0
1979-07-18 23:20:36.590 ,5,0,0.,12.0,0.,12.0,0.,12.0,0.,12.0
1979-07-18 23:20:24.590 ,0,0,0.,12.0,0.,12.0,0.,12.0,0.,12.0
1979-07-18 23:20:36.590 ,0,0,0.,12.0,0.,12.0,0.,12.0,0.,12.0
1979-07-18 23:20:24.590 ,0,0,0.,12.0,0.,12.0,0.,12.0,0.,12.0
1979-07-18 23:20:36.590 ,0,0,0.,12.0,0.,12.0,0.,12.0,0.,12.0
1979-07-18 23:20:48.590 ,4,1,0.,12.0,0.,12.0,0.,12.0,0.,12.0
1979-07-18 23:21:00.590 ,4,1,0.,12.0,0.,12.0,0.,12.0,0.,12.0
1979-07-18 23:21:12.590 ,4,0,0.,12.0,0.,12.0,0.,12.0,0.,12.0
1979-07-18 23:21:24.590 ,4,0,0.,12.0,0.,12.0,0.,12.0,0.,12.0
1979-07-18 23:21:36.590 ,3,1,0.,12.0,0.,12.0,0.,12.0,0.,12.0
1979-07-18 23:21:48.590 ,3,1,0.,12.0,0.,12.0,0.,12.0,0.,12.0
1979-07-18 23:22:00.590 ,3,0,0.,12.0,0.,12.0,0.,12.0,0.,12.0
1979-07-18 23:22:12.590 ,3,0,0.,12.0,0.,12.0,0.,12.0,0.,12.0
1979-07-18 23:22:24.590 ,2,1,0.,12.0,0.,12.0,0.,12.0,0.,12.0
1979-07-18 23:22:36.590 ,2,1,0.,12.0,0.,12.0,0.,12.0,0.,12.0
1979-07-18 23:22:48.590 ,2,0,0.,12.0,0.,12.0,0.,12.0,0.,12.0
1979-07-18 23:23:00.590 ,2,0,0.,12.0,0.,12.0,0.,12.0,0.,12.0
1979-07-18 23:23:12.590 ,1,1,0.,12.0,0.,12.0,0.,12.0,0.,12.0
1979-07-18 23:23:24.590 ,1,1,0.,12.0,0.,12.0,0.,12.0,0.,12.0
1979-07-18 23:23:36.590 ,1,0,0.,12.0,0.,12.0,0.,12.0,0.,12.0
1979-07-18 23:23:48.590 ,1,0,0.,12.0,0.,12.0,0.,12.0,0.,12.0
1979-07-18 23:24:00.590 ,0,1,0.,12.0,0.,12.0,0.,12.0,0.,12.0
1979-07-18 23:24:12.590 ,0,1,0.,12.0,0.,12.0,0.,12.0,0.,12.0
1979-07-18 23:24:24.590 ,0,0,0.,12.0,0.,12.0,0.,12.0,0.,12.0
1979-07-18 23:24:36.590 ,0,0,0.,12.0,0.,12.0,0.,12.0,0.,12.0
1979-07-18 23:24:48.590 ,0,1,0.,12.0,0.,12.0,0.,12.0,1.,12.0
1979-07-18 23:25:00.590 ,0,1,0.,12.0,0.,12.0,0.,12.0,0.,12.0
1979-07-18 23:25:12.590 ,0,0,0.,12.0,0.,12.0,0.,12.0,0.,12.0
1979-07-18 23:25:24.590 ,0,0,0.,12.0,0.,12.0,0.,12.0,0.,12.0
1979-07-18 23:25:36.590 ,1,1,0.,12.0,0.,12.0,0.,12.0,0.,12.0
1979-07-18 23:25:48.590 ,1,1,0.,12.0,0.,12.0,0.,12.0,0.,12.0
1979-07-18 23:26:00.590 ,1,0,0.,12.0,0.,12.0,0.,12.0,0.,12.0
1979-07-18 23:26:12.590 ,1,0,0.,12.0,0.,12.0,0.,12.0,0.,12.0
1979-07-18 23:26:24.590 ,2,1,0.,12.0,0.,12.0,0.,12.0,0.,12.0
1979-07-18 23:26:36.590 ,2,1,0.,12.0,0.,12.0,0.,12.0,0.,12.0
1979-07-18 23:26:48.590 ,2,0,0.,12.0,0.,12.0,0.,12.0,0.,12.0
1979-07-18 23:27:00.590 ,2,0,0.,12.0,0.,12.0,0.,12.0,0.,12.0
1979-07-18 23:27:12.590 ,3,1,0.,12.0,0.,12.0,0.,12.0,0.,12.0
1979-07-18 23:27:24.590 ,3,1,0.,12.0,0.,12.0,0.,12.0,0.,12.0
1979-07-18 23:27:36.590 ,3,0,,0,,0,,0,,0
1979-07-18 23:27:48.590 ,3,0,0.,12.0,0.,12.0,0.,12.0,0.,12.0
1979-07-18 23:28:00.590 ,4,1,0.,12.0,0.,12.0,0.,12.0,0.,12.0
1979-07-18 23:28:12.590 ,4,1,0.,12.0,0.,12.0,0.,12.0,0.,12.0
1979-07-18 23:28:24.590 ,4,0,0.,12.0,0.,12.0,0.,12.0,0.,12.0
1979-07-18 23:28:36.590 ,4,0,0.,12.0,0.,12.0,0.,12.0,0.,12.0
1979-07-18 23:28:48.590 ,5,1,0.,12.0,0.,12.0,0.,12.0,0.,12.0
1979-07-18 23:29:00.590 ,5,1,0.,12.0,0.,12.0,0.,12.0,0.,12.0
1979-07-18 23:29:12.590 ,5,0,0.,12.0,0.,12.0,0.,12.0,0.,12.0
1979-07-18 23:29:24.590 ,5,0,0.,12.0,0.,12.0,0.,12.0,0.,12.0
1979-07-18 23:29:36.590 ,6,1,0.,12.0,0.,12.0,0.,12.0,0.,12.0
1979-07-18 23:29:48.590 ,6,1,0.,12.0,0.,12.0,0.,12.0,0.,12.0
1979-07-18 23:30:00.590 ,6,0,0.,12.0,0.,12.0,0.,12.0,0.,12.0
1979-07-18 23:30:12.590 ,6,0,0.,12.0,0.,12.0,0.,12.0,0.,12.0
1979-07-18 23:31:12.590 ,0,0,0.,12.0,0.,12.0,0.,12.0,0.,12.0
1979-07-18 23:31:24.590 ,0,0,0.,12.0,0.,12.0,0.,12.0,0.,12.0
1979-07-18 23:31:36.590 ,0,1,0.,12.0,0.,12.0,0.,12.0,0.,12.0
1979-07-18 23:31:48.590 ,0,1,0.,12.0,0.,12.0,0.,12.0,0.,12.0
1979-07-18 23:32:00.590 ,3,1,0.,12.0,0.,12.0,0.,12.0,0.,12.0
1979-07-18 23:32:12.590 ,3,1,0.,12.0,0.,12.0,0.,12.0,0.,12.0
1979-07-18 23:32:24.590 ,7,1,0.,12.0,0.,12.0,0.,12.0,0.,12.0
1979-07-18 23:32:36.590 ,7,1,0.,12.0,0.,12.0,0.,12.0,0.,12.0
1979-07-18 23:32:48.590 ,4,1,0.,12.0,0.,12.0,0.,12.0,0.,12.0
1979-07-18 23:33:00.590 ,4,1,0.,12.0,0.,12.0,0.,12.0,0.,12.0
1979-07-18 23:33:12.590 ,0,1,0.,12.0,0.,12.0,0.,12.0,0.,12.0
1979-07-18 23:33:24.590 ,0,1,0.,12.0,0.,12.0,0.,12.0,0.,12.0
1979-07-18 23:33:36.590 ,3,1,0.,12.0,0.,12.0,0.,12.0,0.,12.0
1979-07-18 23:33:48.590 ,3,1,0.,12.0,0.,12.0,0.,12.0,0.,12.0
1979-07-18 23:34:00.590 ,7,1,0.,12.0,0.,12.0,0.,12.0,0.,12.0
1979-07-18 23:34:12.590 ,7,1,0.,12.0,0.,12.0,0.,12.0,0.,12.0
1979-07-18 23:34:24.590 ,4,1,0.,12.0,0.,12.0,0.,12.0,0.,12.0
1979-07-18 23:34:36.590 ,4,1,0.,12.0,0.,12.0,0.,12.0,0.,12.0
1979-07-18 23:34:48.590 ,0,1,0.,12.0,0.,12.0,0.,12.0,0.,12.0
1979-07-18 23:35:00.590 ,0,1,0.,12.0,0.,12.0,0.,12.0,0.,12.0
1979-07-18 23:35:12.590 ,3,1,0.,12.0,0.,12.0,0.,12.0,0.,12.0
1979-07-18 23:35:24.590 ,3,1,0.,12.0,0.,12.0,0.,12.0,0.,12.0
1979-07-18 23:35:36.590 ,7,1,0.,12.0,0.,12.0,0.,12.0,0.,12.0
1979-07-18 23:35:48.590 ,7,1,0.,12.0,0.,12.0,0.,12.0,0.,12.0
1979-07-18 23:36:00.590 ,4,1,0.,12.0,0.,12.0,0.,12.0,0.,12.0
1979-07-18 23:36:12.590 ,4,1,0.,12.0,0.,12.0,0.,12.0,0.,12.0
1979-07-18 23:36:24.590 ,0,1,0.,12.0,0.,12.0,0.,12.0,0.,12.0
1979-07-18 23:36:36.590 ,0,1,0.,12.0,0.,12.0,0.,12.0,0.,12.0
1979-07-18 23:36:48.590 ,3,1,0.,12.0,0.,12.0,0.,12.0,0.,12.0
1979-07-18 23:37:00.590 ,3,1,0.,12.0,0.,12.0,0.,12.0,0.,12.0
1979-07-18 23:37:12.590 ,7,1,0.,12.0,0.,12.0,0.,12.0,0.,12.0
1979-07-18 23:37:24.590 ,7,1,0.,12.0,0.,12.0,0.,12.0,0.,12.0
1979-07-18 23:37:36.590 ,4,1,0.,12.0,0.,12.0,0.,12.0,0.,12.0
1979-07-18 23:37:48.590 ,4,1,0.,12.0,0.,12.0,0.,12.0,0.,12.0
1979-07-18 23:38:00.590 ,0,1,0.,12.0,0.,12.0,0.,12.0,0.,12.0
1979-07-18 23:38:12.590 ,0,1,0.,12.0,0.,12.0,0.,12.0,0.,12.0
1979-07-18 23:38:24.590 ,3,1,0.,12.0,0.,12.0,0.,12.0,0.,12.0
1979-07-18 23:38:36.590 ,3,1,0.,12.0,0.,12.0,0.,12.0,0.,12.0
1979-07-18 23:38:48.590 ,7,1,0.,12.0,0.,12.0,0.,12.0,0.,12.0
1979-07-18 23:39:00.590 ,7,1,0.,12.0,0.,12.0,0.,12.0,0.,12.0
1979-07-18 23:39:12.590 ,4,1,0.,12.0,0.,12.0,0.,12.0,0.,12.0
1979-07-18 23:39:24.590 ,4,1,0.,12.0,0.,12.0,0.,12.0,0.,12.0
1979-07-18 23:39:36.590 ,0,1,0.,12.0,0.,12.0,0.,12.0,0.,12.0
1979-07-18 23:39:48.590 ,0,1,0.,12.0,0.,12.0,0.,12.0,0.,12.0
1979-07-18 23:40:00.590 ,3,1,0.,12.0,0.,12.0,0.,12.0,0.,12.0
1979-07-18 23:40:12.590 ,3,1,0.,12.0,0.,12.0,0.,12.0,0.,12.0
1979-07-18 23:40:24.590 ,7,1,0.,12.0,0.,12.0,0.,12.0,0.,12.0
1979-07-18 23:40:36.590 ,7,1,0.,12.0,0.,12.0,0.,12.0,0.,12.0
1979-07-18 23:40:48.590 ,4,1,0.,12.0,0.,12.0,0.,12.0,0.,12.0
1979-07-18 23:41:00.590 ,4,1,1.,12.0,0.,12.0,0.,12.0,0.,12.0
1979-07-18 23:41:12.590 ,0,1,0.,12.0,0.,12.0,0.,12.0,0.,12.0
1979-07-18 23:41:24.590 ,0,1,0.,12.0,0.,12.0,0.,12.0,0.,12.0
1979-07-18 23:41:36.590 ,0,0,0.,12.0,0.,12.0,0.,12.0,0.,12.0
1979-07-18 23:41:48.590 ,0,0,0.,12.0,0.,12.0,0.,12.0,0.,12.0
1979-07-18 23:42:00.590 ,0,0,0.,12.0,0.,12.0,0.,12.0,0.,12.0
1979-07-18 23:42:12.590 ,0,0,0.,12.0,0.,12.0,0.,12.0,0.,12.0
1979-07-18 23:42:24.590 ,5,1,0.,12.0,0.,12.0,0.,12.0,0.,12.0
1979-07-18 23:42:36.590 ,5,1,0.,12.0,0.,12.0,0.,12.0,0.,12.0
1979-07-18 23:42:48.590 ,5,0,0.,12.0,0.,12.0,0.,12.0,0.,12.0
1979-07-18 23:43:00.590 ,5,0,0.,12.0,0.,12.0,0.,12.0,0.,12.0
1979-07-18 23:43:12.590 ,4,1,0.,12.0,0.,12.0,0.,12.0,0.,12.0
1979-07-18 23:43:24.590 ,4,1,0.,12.0,0.,12.0,0.,12.0,0.,12.0
1979-07-18 23:43:36.590 ,4,0,0.,12.0,0.,12.0,0.,12.0,0.,12.0
1979-07-18 23:43:48.590 ,4,0,0.,12.0,0.,12.0,0.,12.0,0.,12.0
1979-07-18 23:44:00.590 ,3,1,0.,12.0,0.,12.0,0.,12.0,0.,12.0
1979-07-18 23:44:12.590 ,3,1,0.,12.0,0.,12.0,0.,12.0,0.,12.0
1979-07-18 23:44:24.590 ,3,0,1.,12.0,0.,12.0,0.,12.0,0.,12.0
1979-07-18 23:44:36.590 ,3,0,0.,12.0,0.,12.0,0.,12.0,0.,12.0
1979-07-18 23:44:48.590 ,2,1,0.,12.0,0.,12.0,0.,12.0,0.,12.0
1979-07-18 23:45:00.590 ,2,1,0.,12.0,0.,12.0,0.,12.0,0.,12.0
1979-07-18 23:45:12.590 ,2,0,0.,12.0,0.,12.0,0.,12.0,0.,12.0
1979-07-18 23:45:24.590 ,2,0,0.,12.0,0.,12.0,0.,12.0,0.,12.0
1979-07-18 23:45:36.590 ,1,1,0.,12.0,0.,12.0,0.,12.0,0.,12.0
1979-07-18 23:45:48.590 ,1,1,0.,12.0,0.,12.0,0.,12.0,0.,12.0
1979-07-18 23:46:00.590 ,1,0,0.,12.0,0.,12.0,0.,12.0,0.,12.0
1979-07-18 23:46:12.590 ,1,0,0.,12.0,0.,12.0,0.,12.0,0.,12.0
1979-07-18 23:46:24.590 ,0,1,0.,12.0,0.,12.0,0.,12.0,0.,12.0
1979-07-18 23:46:36.590 ,0,1,0.,12.0,0.,12.0,0.,12.0,0.,12.0
1979-07-18 23:46:48.590 ,0,0,0.,12.0,0.,12.0,0.,12.0,0.,12.0
1979-07-18 23:47:00.590 ,0,0,0.,12.0,0.,12.0,0.,12.0,0.,12.0
1979-07-18 23:47:12.590 ,0,1,0.,12.0,0.,12.0,0.,12.0,0.,12.0
1979-07-18 23:47:24.590 ,0,1,0.,12.0,0.,12.0,0.,12.0,0.,12.0
1979-07-18 23:47:36.590 ,0,0,0.,12.0,0.,12.0,0.,12.0,0.,12.0
1979-07-18 23:47:48.590 ,0,0,0.,12.0,0.,12.0,0.,12.0,0.,12.0
1979-07-18 23:48:00.590 ,1,1,0.,12.0,0.,12.0,0.,12.0,0.,12.0
1979-07-18 23:48:12.590 ,1,1,0.,12.0,0.,12.0,0.,12.0,0.,12.0
1979-07-18 23:48:24.590 ,1,0,0.,12.0,0.,12.0,0.,12.0,0.,12.0
1979-07-18 23:48:36.590 ,1,0,0.,12.0,0.,12.0,0.,12.0,0.,12.0
1979-07-18 23:48:48.590 ,2,1,0.,12.0,0.,12.0,0.,12.0,0.,12.0
1979-07-18 23:49:00.590 ,2,1,0.,12.0,0.,12.0,0.,12.0,1.,12.0
1979-07-18 23:49:12.590 ,2,0,0.,12.0,0.,12.0,0.,12.0,0.,12.0
1979-07-18 23:49:24.590 ,2,0,0.,12.0,0.,12.0,0.,12.0,0.,12.0
1979-07-18 23:49:36.590 ,3,1,0.,12.0,0.,12.0,0.,12.0,0.,12.0
1979-07-18 23:49:48.590 ,3,1,0.,12.0,0.,12.0,0.,12.0,0.,12.0
1979-07-18 23:50:00.590 ,3,0,0.,12.0,0.,12.0,0.,12.0,0.,12.0
1979-07-18 23:50:12.590 ,3,0,0.,12.0,0.,12.0,0.,12.0,0.,12.0
1979-07-18 23:50:24.590 ,4,1,0.,12.0,0.,12.0,0.,12.0,0.,12.0
1979-07-18 23:50:36.590 ,4,1,0.,12.0,0.,12.0,0.,12.0,0.,12.0
1979-07-18 23:50:48.590 ,4,0,0.,12.0,0.,12.0,0.,12.0,0.,12.0
1979-07-18 23:51:00.590 ,4,0,0.,12.0,0.,12.0,0.,12.0,0.,12.0
1979-07-18 23:51:12.590 ,5,1,0.,12.0,0.,12.0,0.,12.0,0.,12.0
1979-07-18 23:51:24.590 ,5,1,0.,12.0,0.,12.0,0.,12.0,0.,12.0
1979-07-18 23:51:36.590 ,5,0,0.,12.0,0.,12.0,0.,12.0,0.,12.0
1979-07-18 23:51:48.590 ,5,0,0.,12.0,0.,12.0,0.,12.0,0.,12.0
1979-07-18 23:52:00.590 ,6,1,0.,12.0,0.,12.0,0.,12.0,0.,12.0
1979-07-18 23:52:12.590 ,6,1,0.,12.0,0.,12.0,0.,12.0,0.,12.0
1979-07-18 23:52:24.590 ,6,0,0.,12.0,0.,12.0,0.,12.0,0.,12.0
1979-07-18 23:52:36.590 ,6,0,0.,12.0,0.,12.0,0.,12.0,0.,12.0
1979-07-18 23:52:48.590 ,7,1,1.,12.0,0.,12.0,0.,12.0,0.,12.0
1979-07-18 23:53:00.590 ,7,1,0.,12.0,0.,12.0,0.,12.0,0.,12.0
1979-07-18 23:53:12.590 ,7,0,0.,12.0,0.,12.0,0.,12.0,0.,12.0
1979-07-18 23:53:24.590 ,7,0,0.,12.0,0.,12.0,0.,12.0,0.,12.0
1979-07-18 23:53:36.590 ,7,1,0.,12.0,0.,12.0,0.,12.0,0.,12.0
1979-07-18 23:53:48.590 ,7,1,0.,12.0,0.,12.0,0.,12.0,0.,12.0
1979-07-18 23:54:00.590 ,7,0,0.,12.0,0.,12.0,0.,12.0,0.,12.0
1979-07-18 23:54:12.590 ,7,0,0.,12.0,0.,12.0,0.,12.0,0.,12.0
1979-07-18 23:54:24.590 ,6,1,0.,12.0,0.,12.0,0.,12.0,0.,12.0
1979-07-18 23:54:36.590 ,6,1,0.,12.0,0.,12.0,0.,12.0,0.,12.0
1979-07-18 23:54:48.590 ,6,0,0.,12.0,0.,12.0,0.,12.0,0.,12.0
1979-07-18 23:55:00.590 ,6,0,0.,12.0,0.,12.0,0.,12.0,0.,12.0
1979-07-18 23:55:12.590 ,5,1,0.,12.0,0.,12.0,0.,12.0,0.,12.0
1979-07-18 23:55:24.590 ,5,1,0.,12.0,0.,12.0,0.,12.0,0.,12.0
1979-07-18 23:55:36.590 ,5,0,0.,12.0,0.,12.0,0.,12.0,0.,12.0
1979-07-18 23:55:48.590 ,5,0,0.,12.0,0.,12.0,0.,12.0,0.,12.0
1979-07-18 23:56:00.590 ,4,1,0.,12.0,0.,12.0,0.,12.0,0.,12.0
1979-07-18 23:56:12.590 ,4,1,0.,12.0,0.,12.0,0.,12.0,0.,12.0
1979-07-18 23:56:24.590 ,4,0,0.,12.0,0.,12.0,0.,12.0,0.,12.0
1979-07-18 23:56:36.590 ,4,0,0.,12.0,0.,12.0,0.,12.0,0.,12.0
1979-07-18 23:56:48.590 ,3,1,0.,12.0,0.,12.0,0.,12.0,0.,12.0
1979-07-18 23:57:00.590 ,3,1,0.,12.0,0.,12.0,0.,12.0,0.,12.0
1979-07-18 23:57:12.590 ,3,0,0.,12.0,0.,12.0,0.,12.0,0.,12.0
1979-07-18 23:57:24.590 ,3,0,0.,12.0,0.,12.0,0.,12.0,0.,12.0
1979-07-18 23:57:36.590 ,2,1,0.,12.0,0.,12.0,0.,12.0,0.,12.0
1979-07-18 23:57:48.590 ,2,1,0.,12.0,0.,12.0,0.,12.0,0.,12.0
1979-07-18 23:58:00.590 ,2,0,0.,12.0,0.,12.0,0.,12.0,0.,12.0
1979-07-18 23:58:12.590 ,2,0,0.,12.0,0.,12.0,0.,12.0,0.,12.0
1979-07-18 23:59:12.590 ,0,0,0.,12.0,0.,12.0,0.,12.0,0.,12.0
1979-07-18 23:59:24.590 ,0,0,1.,12.0,0.,12.0,0.,12.0,0.,12.0
1979-07-18 23:59:36.590 ,0,0,0.,12.0,0.,12.0,0.,12.0,0.,12.0
1979-07-18 23:59:48.590 ,0,0,0.,12.0,0.,12.0,0.,12.0,0.,12.0
